World > North America > United States > Minnesota > Hollandale

Hourly Hollandale, MN Regional Weather

Feedback E-mail the Weather

Quick WX

Hollandale, MN Weather Maps

°F °C°F °C
Hollandale Weather Map
UTC Time: 8/11/2022, 06:00
Your Time:

Hollandale, MN Regional Weather

Expires:202208110600;;830421
ASUS43 KMPX 110510
RWRMN 
WEATHER ROUNDUP FOR MINNESOTA
NATIONAL WEATHER SERVICE TWIN CITIES/CHANHASSEN MN
1200 AM CDT THU AUG 11 2022


NOTE: "FAIR" INDICATES FEW OR NO CLOUDS BELOW 12,000 FEET WITH NO
SIGNIFICANT WEATHER AND/OR OBSTRUCTIONS TO VISIBILITY. N/A MEANS
CURRENT SKY AND/OR WEATHER CONDITIONS ARE NOT AVAILABLE.


MNZ065>067-074>077-082>085-091>093-110600-
   South Central Minnesota  
  
CITY           SKY/WX    TMP DP  RH WIND       PRES   REMARKS
MANKATO        CLOUDY    72  58  61 NE8       30.21R                  
NEW ULM        CLEAR     72  54  53 NE8       30.20R                  
ST JAMES       MOCLDY    70  63  78 NE6       30.19S                  
FAIRMONT       CLEAR     70  68  93 N5        30.20R                  
GLENCOE        CLEAR     67  55  64 NE3       30.21R                  
FARIBAULT      CLEAR     63  61  94 CALM      30.21R                  
OWATONNA       PTCLDY    68  61  77 CALM      30.20R                  
WASECA         MOCLDY    70  61  73 NE6       30.21R                  
ALBERT LEA     PTCLDY    70  63  78 NE7       30.20R                  
$$

SKY/WX - Weather  TMP - Temperature  DP - Dew Point  RH - Humidity
WIND - Wind Direction/Speed PRES - Barometric Pressure VSB - Visibility
WCI - Wind Chill Index E13G22 Wind - East Wind 13 mph/Gusts of 22 mph

Trending Headlines

Hollandale Radar Loop



Hollandale Quick Facts


National Two Day Weather Forecast


E-mail the Hollandale Weather Forecast

Voice your opinion or tell us about page issues...